This demonstration page uses our WeatherBlox Daily Observations layout. Learn more.

Left ArrowRight Arrow

39.01783, -85.05884

Hourly Observations for March 11, 2015

Temp ( °F °C ) Dew Point ( °F °C ) Humidity (%) Winds ( mph kmh ) Pressure ( in mb ) Visibility ( mi km ) Precip ( " mm )
12:26 am 00:26 Mostly Cloudy with Fog 46 8 46 8 100 100 Calm 30.09 1019 1 2 0.00 0.00
12:52 am 00:52 Mostly Cloudy with Fog 47 8.3 46 7.8 97 97 W 3 6 30.06 1018 1 2 0.00 0.00
1:04 am 01:04 Mostly Cloudy with Fog 46 8 45 7 93 93 WNW 5 7 30.09 1019 1 2 0.00 0.00
1:52 am 01:52 Mostly Cloudy with Fog 46 7.8 46 7.8 100 100 WNW 3 6 30.08 1019 1 2 0.00 0.00
2:29 am 02:29 Mostly Cloudy with Fog 46 8 45 7 93 93 NW 6 9 30.12 1020 1 2 0.00 0.00
2:52 am 02:52 Mostly Cloudy with Fog 46 7.8 45 7.2 96 96 WNW 5 7 30.10 1019 1 2 0.00 0.00
3:15 am 03:15 Mostly Cloudy with Fog 45 7 45 7 100 100 NW 5 7 30.12 1020 1 2 0.00 0.00
3:52 am 03:52 Mostly Cloudy with Fog 45 7.2 44 6.7 97 97 NNW 5 7 30.10 1019 1 2 0.00 0.00
4:52 am 04:52 Mostly Cloudy with Fog 46 7.8 44 6.7 93 93 Calm 30.10 1019 1 2 0.00 0.00
5:00 am 05:00 Mostly Cloudy with Fog 45 7 45 7 100 100 Calm 30.15 1021 1 2 0.00 0.00
5:10 am 05:10 Mostly Cloudy with Fog 45 7 45 7 100 100 Calm 30.15 1021 1 2 0.00 0.00
5:52 am 05:52 Mostly Cloudy with Fog 46 7.8 45 7.2 96 96 VRB 5 7 30.11 1020 1 2 0.00 0.00
6:06 am 06:06 Mostly Cloudy with Fog 46 8 45 7 93 93 WNW 3 6 30.15 1021 1 2 0.00 0.00
6:52 am 06:52 Mostly Cloudy with Fog 45 7.2 45 7.2 100 100 NW 3 6 30.15 1021 1 2 0.00 0.00
7:52 am 07:52 Mostly Cloudy with Fog 44 6.7 44 6.7 100 100 NNW 6 9 30.17 1022 1 2 0.00 0.00
8:52 am 08:52 Mostly Cloudy with Fog 44 6.7 44 6.7 100 100 Calm 30.19 1022 1 2 0.00 0.00
9:52 am 09:52 Mostly Cloudy with Fog 44 6.7 44 6.7 100 100 WNW 3 6 30.21 1023 1 2 0.00 0.00
10:41 am 10:41 Mostly Cloudy with Mist and Fog 45 7 43 6 93 93 NNW 5 7 30.24 1024 1 2 0.00 0.00
10:52 am 10:52 Mostly Cloudy with Mist and Fog 45 7.2 44 6.7 97 97 NW 3 6 30.23 1024 1 2 0.00 0.00
11:17 am 11:17 Mostly Cloudy with Mist and Fog 46 8 45 7 93 93 N 6 9 30.27 1025 2 3 0.00 0.00
11:52 am 11:52 Partly Cloudy with Mist and Fog 48 8.9 44 6.7 86 86 Calm 30.23 1024 3 5 0.00 0.00
12:52 pm 12:52 Mostly Sunny 54 12.2 46 7.8 75 75 Calm 30.22 1024 7 11 0.00 0.00
1:52 pm 13:52 Sunny 57 13.9 47 8.3 69 69 Calm 30.23 1024 7 11 0.00 0.00
2:52 pm 14:52 Sunny 60 15.6 48 8.9 65 65 SW 5 7 30.20 1023 8 13 0.00 0.00
3:52 pm 15:52 Sunny 62 16.7 46 7.8 56 56 NW 8 13 30.20 1023 10 16 0.00 0.00
4:52 pm 16:52 Partly Cloudy 63 17.2 49 9.4 60 60 N 10 17 30.22 1023 9 14 0.00 0.00
5:52 pm 17:52 Partly Cloudy 64 17.8 46 7.8 52 52 N 8 13 30.22 1023 10 16 0.00 0.00
6:52 pm 18:52 Mostly Cloudy 63 17.2 46 7.8 54 54 N 3 6 30.23 1024 10 16 0.00 0.00
7:52 pm 19:52 Partly Cloudy 57 13.9 45 7.2 64 64 NNE 6 9 30.26 1025 10 16 0.00 0.00
8:52 pm 20:52 Clear 55 12.8 44 6.7 67 67 Calm 30.29 1026 10 16 0.00 0.00
9:52 pm 21:52 Hazy 52 11.1 46 7.8 80 80 N 15 24 30.32 1027 6 10 0.00 0.00
10:52 pm 22:52 Hazy 48 8.9 42 5.6 80 80 NNE 15 24 30.37 1028 5 8 0.00 0.00
11:52 pm 23:52 Clear with Mist and Fog 45 7.2 41 5 86 86 NNE 12 19 30.37 1029 3 5 0.00 0.00

Powered by AerisWeather